SCP
0 0 0 0 0 0 0 0 0 0 0 0 0 0 0 0 0 0 0 0 0 0 0 0 0 0 0 0 0 0 0 0 0 0 0 0 0 0 0 0 0 0 0
0 0 0 0 0 0 0 0 0 0 0 0 0 0 0 0 0 0 0 0 0 0 0 0 0 0 0 0 0 0 0 0 0 0 0 0 0 0 0 0 0 0 0
0 0 0 0 0 0 0 0 0 0 0 0 0 0 0 0 0 0 0 0 0 0 0 0 0 0 0 0 0 0 0 0 0 0 0 0 0 0 0 0 0 0 0
0 0 0 0 0 0 0 0 0 0 0 0 0 0 0 0 0 0 0 0 0 0 0 0 0 0 0 0 0 0 0 0 0 0 0 0 0 0 0 0 0 0 0
0 0 0 0 0 0 0 0 0 0 0 0 0 0 0 0 0 0 0 0 0 0 0 0 0 0 0 0 0 0 0 0 0 0 0 0 0 0 0 0 0 0 0
0 0 0 0 0 0 0 0 0 0 0 0 0 0 0 0 0 0 0 0 0 0 0 0 0 0 0 0 0 0 0 0 0 0 0 0 0 0 0 0 0 0 0
0 0 0 0 0 0 0 0 0 0 0 0 0 0 0 0 0 0 0 0 0 0 0 0 0 0 0 0 0 0 0 0 0 0 0 0 0 0 0 0 0 0 0
0 0 0 0 0 0 0 0 0 0 0 0 0 0 0 0 0 0 0 0 0 0 0 0 0 0 0 0 0 0 0 0 0 0 0 0 0 0 0 0 0 0 0
0 0 0 0 0 0 0 0 0 0 0 0 0 0 0 0 0 0 0 0 0 0 0 0 0 0 0 0 0 0 0 0 0 0 0 0 0 0 0 0 0 0 0
0 0 0 0 0 0 0 0 0 0 0 0 0 0 0 0 0 0 0 0 0 0 0 0 0 0 0 0 0 0 0 0 0 0 0 0 0 0 0 0 0 0 0
0 0 0 0 0 0 0 0 0 0 0 0 0 0 0 0 0 0 0 0 0 0 0 0 0 0 0 0 0 0 0 0 0 0 0 0 0 0 0 0 0 0 0
0 0 0 0 0 0 0 0 0 0 0 0 0 0 0 0 0 0 0 0 0 0 0 0 0 0 0 0 0 0 0 0 0 0 0 0 0 0 0 0 0 0 0
0 0 0 0 0 0 0 0 0 0 0 0 0 0 0 0 0 0 0 0 0 0 0 0 0 0 0 0 0 0 0 0 0 0 0 0 0 0 0 0 0 0 0
0 0 0 0 0 0 0 0 0 0 0 0 0 0 0 0 0 0 0 0 0 0 0 0 0 0 0 0 0 0 0 0 0 0 0 0 0 0 0 0 0 0 0
0 0 0 0 0 0 0 0 0 0 0 0 0 0 0 0 0 0 0 0 0 0 0 0 0 0 0 0 0 0 0 0 0 0 0 0 0 0 0 0 0 0 0
0 0 0 0 0 0 0 0 0 0 0 0 0 0 0 0 0 0 0 0 0 0 0 0 0 0 0 0 0 0 0 0 0 0 0 0 0 0 0 0 0 0 0
0 0 0 0 0 0 0 0 0 0 0 0 0 0 0 0 0 0 0 0 0 0 0 0 0 0 0 0 0 0 0 0 0 0 0 0 0 0 0 0 0 0 0
0 0 0 0 0 0 0 0 0 0 0 0 0 0 0 0 0 0 0 0 0 0 0 0 0 0 0 0 0 0 0 0 0 0 0 0 0 0 0 0 0 0 0
0 0 0 0 0 0 0 0 0 0 0 0 0 0 0 0 0 0 0 0 0 0 0 0 0 0 0 0 0 0 0 0 0 0 0 0 0 0 0 0 0 0 0
0 0 0 0 0 0 0 0 0 0 0 0 0 0 0 0 0 0 0 0 0 0 0 0 0 0 0 0 0 0 0 0 0 0 0 0 0 0 0 0 0 0 0
0 0 0 0 0 0 0 0 0 0 0 0 0 0 0 0 0 0 0 0 0 0 0 0 0 0 0 0 0 0 0 0 0 0 0 0 0 0 0 0 0 0 0
0 0 0 0 0 0 0 0 0 0 0 0 0 0 0 0 0 0 0 0 0 0 0 0 0 0 0 0 0 0 0 0 0 0 0 0 0 0 0 0 0 0 0
0 0 0 0 0 0 0 0 0 0 0 0 0 0 0 0 0 0 0 0 0 0 0 0 0 0 0 0 0 0 0 0 0 0 0 0 0 0 0 0 0 0 0
0 0 0 0 0 0 0 0 0 0 0 0 0 0 0 0 0 0 0 0 0 0 0 0 0 0 0 0 0 0 0 0 0 0 0 0 0 0 0 0 0 0 0
0 0 0 0 0 0 0 0 0 0 0 0 0 0 0 0 0 0 0 0 0 0 0 0 0 0 0 0 0 0 0 0 0 0 0 0 0 0 0 0 0 0 0
0 0 0 0 0 0 0 0 0 0 0 0 0 0 0 0 0 0 0 0 0 0 0 0 0 0 0 0 0 0 0 0 0 0 0 0 0 0 0 0 0 0 0
Wind_Speed_500mb
77 81 86 91 92 91 92 90 89 82 77 80 80 73 71 84 86 85 74 74 63 57 57 56 57 56 53 48 41 36 32 30 27 27 23 16 14 14 14 15 16 17 20
66 74 77 84 84 86 89 90 89 82 80 80 80 79 69 73 88 89 79 80 63 64 60 60 60 59 55 47 39 34 32 29 25 23 18 11 14 13 14 14 16 17 17
49 56 64 71 81 85 86 86 81 80 82 79 82 80 73 72 83 89 84 74 66 67 60 66 63 61 55 46 42 37 33 31 24 19 13 12 15 14 14 14 16 17 19
32 39 47 53 59 68 72 73 72 69 70 75 77 76 77 76 74 93 76 75 72 66 63 68 64 58 51 46 41 39 36 31 23 19 12 17 19 17 16 15 15 18 20
24 30 30 32 37 45 54 59 61 63 66 69 71 76 76 77 76 93 81 76 78 64 66 70 63 54 48 43 40 40 36 30 24 21 19 21 24 23 21 20 20 19 20
25 25 27 31 35 41 45 51 57 62 65 69 73 76 75 77 76 79 82 81 73 64 69 70 62 56 50 47 44 42 36 29 26 21 25 26 28 25 26 25 25 26 21
26 27 29 32 35 39 42 47 51 55 59 63 66 65 66 72 71 84 80 84 72 67 66 63 61 57 52 50 50 45 37 30 21 26 33 32 33 28 26 27 28 29 29
28 31 33 34 35 38 40 41 43 47 50 50 51 54 62 64 73 73 83 74 70 62 65 62 58 55 56 56 54 48 41 31 23 30 37 40 36 34 29 30 29 29 32
35 36 35 37 40 40 37 37 40 42 42 40 45 48 58 62 73 75 77 73 63 61 63 62 58 58 56 58 55 46 40 31 28 34 43 48 43 35 33 33 27 32 35
30 33 35 37 39 42 40 37 35 38 40 42 44 47 55 66 70 73 73 67 65 69 69 68 66 61 59 58 55 49 42 31 35 35 49 51 45 37 36 37 33 35 34
28 31 33 34 33 35 39 39 34 36 37 40 45 49 52 59 70 75 71 65 65 68 71 74 67 64 61 60 58 50 39 34 43 37 55 54 50 43 43 42 39 37 36
21 26 29 32 34 33 33 35 36 36 37 40 47 51 53 55 61 68 67 63 69 73 70 69 63 60 61 62 57 49 40 42 42 47 63 59 51 48 45 45 42 36 33
22 21 24 26 28 31 32 32 34 34 37 44 50 52 53 54 58 63 64 68 65 69 68 66 58 58 60 62 58 53 48 49 46 66 68 62 50 48 49 47 41 42 41
17 23 23 23 23 24 26 26 29 31 35 42 48 52 56 57 59 63 67 67 67 70 72 63 61 63 69 67 62 56 55 54 61 69 67 61 51 57 53 46 44 43 46
17 19 23 26 26 24 23 23 22 23 29 37 44 47 52 55 53 61 68 71 67 68 69 74 75 77 80 74 67 63 66 64 68 70 69 64 59 59 58 51 49 45 48
17 19 21 24 25 27 29 27 27 25 27 29 35 41 46 50 50 49 50 56 63 69 77 82 86 86 85 78 72 73 76 69 70 72 71 67 64 63 61 55 53 50 48
19 21 22 23 26 29 30 32 33 28 27 30 31 34 41 43 49 53 51 46 55 72 87 90 92 91 92 83 81 80 72 65 66 73 69 69 67 66 64 60 55 51 50
16 20 22 25 26 29 32 34 35 36 38 37 28 30 33 36 44 50 48 49 61 72 87 94 95 92 90 86 87 77 76 73 71 78 73 71 70 70 67 64 59 53 50
20 22 24 26 28 30 30 32 33 34 36 38 39 36 32 33 35 36 45 58 72 78 84 93 94 92 92 95 90 81 83 84 82 81 74 73 74 73 71 66 61 55 52
21 24 25 27 29 31 33 37 39 40 40 39 39 37 39 41 38 39 46 57 70 81 84 89 95 94 95 101 101 91 86 90 87 83 78 80 79 76 74 69 63 60 55
23 25 28 31 33 36 37 37 39 39 40 41 40 37 37 38 47 47 46 49 56 73 83 90 95 94 98 104 113 93 92 95 84 79 79 79 79 78 75 70 64 58 54
23 28 32 34 37 40 40 42 43 45 44 45 45 43 40 40 40 44 48 52 55 59 66 81 91 95 99 102 93 88 87 89 89 88 86 84 81 78 74 69 65 60 56
28 33 35 40 42 44 46 48 48 49 49 48 47 46 45 44 43 43 48 52 58 61 67 72 77 82 89 91 85 81 82 87 88 83 77 78 77 78 74 71 67 62 57
35 40 44 48 50 52 54 56 56 57 57 56 54 53 50 49 49 47 48 51 54 56 60 65 70 78 84 87 88 87 85 82 80 74 73 75 75 75 73 69 66 61 56
47 51 54 57 59 61 63 63 63 62 63 63 63 62 59 55 54 53 53 54 57 60 63 65 67 70 73 77 78 77 74 72 70 70 69 72 70 68 70 66 62 58 57
56 58 59 62 64 64 65 65 65 64 64 64 64 63 62 63 60 57 54 53 55 58 59 61 62 62 62 62 61 57 53 58 62 63 66 67 68 69 70 68 62 61 59
Wind_Direction_500mb
250 247 248 249 249 250 252 252 247 242 239 242 251 252 249 241 240 239 238 239 240 240 254 248 241 235 231 231 230 227 222 219 219 227 233 246 269 284 302 314 323 335 344
250 249 245 246 247 249 248 250 248 245 242 243 247 250 253 244 239 239 241 238 237 242 249 242 234 230 228 229 227 223 217 215 221 228 233 254 273 281 299 303 308 321 331
259 257 256 250 247 246 249 252 253 251 249 248 248 251 253 250 244 237 239 248 244 241 255 241 231 229 228 228 224 216 213 212 219 231 248 275 273 278 290 300 305 310 317
277 270 264 258 254 255 256 256 256 256 253 250 250 253 254 252 249 241 242 242 239 241 247 233 229 229 231 228 221 215 210 210 215 227 254 272 271 275 286 298 299 302 301
282 270 263 259 254 250 253 258 260 260 259 258 254 252 250 250 248 239 245 240 237 243 232 228 227 227 228 227 223 216 211 212 217 231 260 263 269 277 287 290 300 299 302
277 279 274 270 266 262 262 266 268 267 268 265 261 260 255 246 245 251 238 233 236 243 233 226 225 225 226 224 219 216 216 216 233 242 253 258 262 271 280 289 300 305 308
277 271 267 266 266 271 273 272 272 273 272 270 265 262 252 251 246 243 230 236 236 237 230 229 230 229 227 224 219 217 216 231 238 262 263 260 259 263 272 281 290 299 308
269 264 263 265 266 265 266 269 272 272 275 275 269 264 258 253 246 242 236 230 236 230 230 230 231 232 230 225 219 217 223 229 240 267 271 262 261 261 268 274 281 292 299
287 286 278 269 266 264 264 270 273 274 276 272 271 266 261 254 247 240 235 236 234 228 231 231 233 233 229 225 219 218 228 235 253 284 272 264 265 263 265 270 279 286 297
278 284 288 281 274 271 268 266 268 274 274 269 265 261 262 258 251 238 238 236 231 226 228 230 230 231 229 224 220 225 228 244 263 272 267 265 266 263 266 272 275 284 289
294 291 293 293 286 277 272 268 264 262 265 266 265 264 258 257 248 243 239 235 232 232 234 234 233 232 229 225 223 229 233 247 272 267 266 264 264 267 269 270 271 273 277
309 306 303 300 301 292 281 274 269 265 266 266 267 267 265 258 250 246 242 235 237 236 238 241 239 237 232 227 229 231 236 260 266 276 264 264 263 265 268 268 271 271 272
332 326 320 315 312 305 295 285 277 271 267 270 271 269 267 263 256 252 248 241 238 240 241 241 241 238 232 228 233 231 244 257 283 280 265 265 264 267 269 270 272 275 280
348 346 340 333 328 315 309 302 292 286 277 272 273 276 277 270 263 257 253 245 238 240 241 240 238 234 230 233 233 237 249 264 281 273 265 264 261 263 266 266 267 271 275
352 350 341 337 332 323 316 310 306 299 285 279 273 271 273 274 276 269 259 251 251 250 244 239 236 233 230 233 235 243 252 262 269 261 259 260 260 260 263 265 265 266 269
343 342 341 339 336 331 328 325 325 319 308 300 293 287 282 278 275 272 268 260 252 252 249 246 243 239 235 238 240 250 255 261 265 258 260 259 258 259 262 262 262 263 267
348 349 350 348 344 341 336 330 327 324 318 313 308 299 292 288 278 275 272 265 257 253 250 249 247 244 239 240 250 253 263 270 259 261 261 261 259 258 257 258 259 261 265
353 355 354 353 351 344 339 335 331 326 323 320 315 307 300 292 283 277 271 258 251 249 251 250 249 247 242 247 250 260 269 261 254 262 259 260 259 257 255 255 256 258 262
355 359 0 356 355 350 350 345 341 339 335 330 326 326 323 310 299 286 267 262 257 252 254 253 253 253 248 254 255 268 270 281 255 262 259 261 259 256 255 256 256 256 257
7 8 4 1 357 353 351 349 346 343 339 335 333 331 323 319 311 298 287 275 265 260 256 256 258 260 255 258 259 267 270 276 252 261 258 258 259 256 254 254 253 253 255
354 354 351 348 346 341 341 340 338 337 335 332 330 327 322 311 310 306 300 292 281 273 268 264 263 263 262 262 267 268 278 276 257 259 261 261 259 255 254 253 250 250 250
343 342 340 338 336 334 334 333 331 328 327 325 323 322 320 314 306 302 301 297 292 287 278 270 267 269 266 268 274 281 281 277 266 260 255 255 255 253 252 250 249 246 246
334 332 331 330 329 327 325 324 322 320 319 318 318 317 316 311 304 296 288 285 286 285 278 276 278 277 274 273 276 279 279 276 275 268 258 254 255 252 249 247 247 246 241
320 320 320 318 316 315 314 314 313 312 311 310 309 309 308 306 303 298 292 287 283 281 278 274 272 269 270 271 273 277 278 275 269 259 255 249 249 248 245 242 241 241 241
310 309 308 306 305 305 305 305 305 306 305 305 305 305 304 303 301 300 298 295 292 288 285 282 278 276 274 273 274 277 277 270 260 256 250 251 250 246 245 244 243 240 237
300 299 299 299 298 298 298 298 298 299 300 300 302 303 303 304 303 302 301 297 294 291 288 286 284 282 280 278 277 275 272 266 261 258 255 253 248 245 243 242 238 235 236
Wind_Speed_850mb
77 81 86 91 92 91 92 90 89 82 77 80 80 73 71 84 86 85 74 74 63 57 57 56 57 56 53 48 41 36 32 30 27 27 23 16 14 14 14 15 16 17 20
66 74 77 84 84 86 89 90 89 82 80 80 80 79 69 73 88 89 79 80 63 64 60 60 60 59 55 47 39 34 32 29 25 23 18 11 14 13 14 14 16 17 17
49 56 64 71 81 85 86 86 81 80 82 79 82 80 73 72 83 89 84 74 66 67 60 66 63 61 55 46 42 37 33 31 24 19 13 12 15 14 14 14 16 17 19
32 39 47 53 59 68 72 73 72 69 70 75 77 76 77 76 74 93 76 75 72 66 63 68 64 58 51 46 41 39 36 31 23 19 12 17 19 17 16 15 15 18 20
24 30 30 32 37 45 54 59 61 63 66 69 71 76 76 77 76 93 81 76 78 64 66 70 63 54 48 43 40 40 36 30 24 21 19 21 24 23 21 20 20 19 20
25 25 27 31 35 41 45 51 57 62 65 69 73 76 75 77 76 79 82 81 73 64 69 70 62 56 50 47 44 42 36 29 26 21 25 26 28 25 26 25 25 26 21
26 27 29 32 35 39 42 47 51 55 59 63 66 65 66 72 71 84 80 84 72 67 66 63 61 57 52 50 50 45 37 30 21 26 33 32 33 28 26 27 28 29 29
28 31 33 34 35 38 40 41 43 47 50 50 51 54 62 64 73 73 83 74 70 62 65 62 58 55 56 56 54 48 41 31 23 30 37 40 36 34 29 30 29 29 32
35 36 35 37 40 40 37 37 40 42 42 40 45 48 58 62 73 75 77 73 63 61 63 62 58 58 56 58 55 46 40 31 28 34 43 48 43 35 33 33 27 32 35
30 33 35 37 39 42 40 37 35 38 40 42 44 47 55 66 70 73 73 67 65 69 69 68 66 61 59 58 55 49 42 31 35 35 49 51 45 37 36 37 33 35 34
28 31 33 34 33 35 39 39 34 36 37 40 45 49 52 59 70 75 71 65 65 68 71 74 67 64 61 60 58 50 39 34 43 37 55 54 50 43 43 42 39 37 36
21 26 29 32 34 33 33 35 36 36 37 40 47 51 53 55 61 68 67 63 69 73 70 69 63 60 61 62 57 49 40 42 42 47 63 59 51 48 45 45 42 36 33
22 21 24 26 28 31 32 32 34 34 37 44 50 52 53 54 58 63 64 68 65 69 68 66 58 58 60 62 58 53 48 49 46 66 68 62 50 48 49 47 41 42 41
17 23 23 23 23 24 26 26 29 31 35 42 48 52 56 57 59 63 67 67 67 70 72 63 61 63 69 67 62 56 55 54 61 69 67 61 51 57 53 46 44 43 46
17 19 23 26 26 24 23 23 22 23 29 37 44 47 52 55 53 61 68 71 67 68 69 74 75 77 80 74 67 63 66 64 68 70 69 64 59 59 58 51 49 45 48
17 19 21 24 25 27 29 27 27 25 27 29 35 41 46 50 50 49 50 56 63 69 77 82 86 86 85 78 72 73 76 69 70 72 71 67 64 63 61 55 53 50 48
19 21 22 23 26 29 30 32 33 28 27 30 31 34 41 43 49 53 51 46 55 72 87 90 92 91 92 83 81 80 72 65 66 73 69 69 67 66 64 60 55 51 50
16 20 22 25 26 29 32 34 35 36 38 37 28 30 33 36 44 50 48 49 61 72 87 94 95 92 90 86 87 77 76 73 71 78 73 71 70 70 67 64 59 53 50
20 22 24 26 28 30 30 32 33 34 36 38 39 36 32 33 35 36 45 58 72 78 84 93 94 92 92 95 90 81 83 84 82 81 74 73 74 73 71 66 61 55 52
21 24 25 27 29 31 33 37 39 40 40 39 39 37 39 41 38 39 46 57 70 81 84 89 95 94 95 101 101 91 86 90 87 83 78 80 79 76 74 69 63 60 55
23 25 28 31 33 36 37 37 39 39 40 41 40 37 37 38 47 47 46 49 56 73 83 90 95 94 98 104 113 93 92 95 84 79 79 79 79 78 75 70 64 58 54
23 28 32 34 37 40 40 42 43 45 44 45 45 43 40 40 40 44 48 52 55 59 66 81 91 95 99 102 93 88 87 89 89 88 86 84 81 78 74 69 65 60 56
28 33 35 40 42 44 46 48 48 49 49 48 47 46 45 44 43 43 48 52 58 61 67 72 77 82 89 91 85 81 82 87 88 83 77 78 77 78 74 71 67 62 57
35 40 44 48 50 52 54 56 56 57 57 56 54 53 50 49 49 47 48 51 54 56 60 65 70 78 84 87 88 87 85 82 80 74 73 75 75 75 73 69 66 61 56
47 51 54 57 59 61 63 63 63 62 63 63 63 62 59 55 54 53 53 54 57 60 63 65 67 70 73 77 78 77 74 72 70 70 69 72 70 68 70 66 62 58 57
56 58 59 62 64 64 65 65 65 64 64 64 64 63 62 63 60 57 54 53 55 58 59 61 62 62 62 62 61 57 53 58 62 63 66 67 68 69 70 68 62 61 59
Wind_Direction_850mb
250 247 248 249 249 250 252 252 247 242 239 242 251 252 249 241 240 239 238 239 240 240 254 248 241 235 231 231 230 227 222 219 219 227 233 246 269 284 302 314 323 335 344
250 249 245 246 247 249 248 250 248 245 242 243 247 250 253 244 239 239 241 238 237 242 249 242 234 230 228 229 227 223 217 215 221 228 233 254 273 281 299 303 308 321 331
259 257 256 250 247 246 249 252 253 251 249 248 248 251 253 250 244 237 239 248 244 241 255 241 231 229 228 228 224 216 213 212 219 231 248 275 273 278 290 300 305 310 317
277 270 264 258 254 255 256 256 256 256 253 250 250 253 254 252 249 241 242 242 239 241 247 233 229 229 231 228 221 215 210 210 215 227 254 272 271 275 286 298 299 302 301
282 270 263 259 254 250 253 258 260 260 259 258 254 252 250 250 248 239 245 240 237 243 232 228 227 227 228 227 223 216 211 212 217 231 260 263 269 277 287 290 300 299 302
277 279 274 270 266 262 262 266 268 267 268 265 261 260 255 246 245 251 238 233 236 243 233 226 225 225 226 224 219 216 216 216 233 242 253 258 262 271 280 289 300 305 308
277 271 267 266 266 271 273 272 272 273 272 270 265 262 252 251 246 243 230 236 236 237 230 229 230 229 227 224 219 217 216 231 238 262 263 260 259 263 272 281 290 299 308
269 264 263 265 266 265 266 269 272 272 275 275 269 264 258 253 246 242 236 230 236 230 230 230 231 232 230 225 219 217 223 229 240 267 271 262 261 261 268 274 281 292 299
287 286 278 269 266 264 264 270 273 274 276 272 271 266 261 254 247 240 235 236 234 228 231 231 233 233 229 225 219 218 228 235 253 284 272 264 265 263 265 270 279 286 297
278 284 288 281 274 271 268 266 268 274 274 269 265 261 262 258 251 238 238 236 231 226 228 230 230 231 229 224 220 225 228 244 263 272 267 265 266 263 266 272 275 284 289
294 291 293 293 286 277 272 268 264 262 265 266 265 264 258 257 248 243 239 235 232 232 234 234 233 232 229 225 223 229 233 247 272 267 266 264 264 267 269 270 271 273 277
309 306 303 300 301 292 281 274 269 265 266 266 267 267 265 258 250 246 242 235 237 236 238 241 239 237 232 227 229 231 236 260 266 276 264 264 263 265 268 268 271 271 272
332 326 320 315 312 305 295 285 277 271 267 270 271 269 267 263 256 252 248 241 238 240 241 241 241 238 232 228 233 231 244 257 283 280 265 265 264 267 269 270 272 275 280
348 346 340 333 328 315 309 302 292 286 277 272 273 276 277 270 263 257 253 245 238 240 241 240 238 234 230 233 233 237 249 264 281 273 265 264 261 263 266 266 267 271 275
352 350 341 337 332 323 316 310 306 299 285 279 273 271 273 274 276 269 259 251 251 250 244 239 236 233 230 233 235 243 252 262 269 261 259 260 260 260 263 265 265 266 269
343 342 341 339 336 331 328 325 325 319 308 300 293 287 282 278 275 272 268 260 252 252 249 246 243 239 235 238 240 250 255 261 265 258 260 259 258 259 262 262 262 263 267
348 349 350 348 344 341 336 330 327 324 318 313 308 299 292 288 278 275 272 265 257 253 250 249 247 244 239 240 250 253 263 270 259 261 261 261 259 258 257 258 259 261 265
353 355 354 353 351 344 339 335 331 326 323 320 315 307 300 292 283 277 271 258 251 249 251 250 249 247 242 247 250 260 269 261 254 262 259 260 259 257 255 255 256 258 262
355 359 0 356 355 350 350 345 341 339 335 330 326 326 323 310 299 286 267 262 257 252 254 253 253 253 248 254 255 268 270 281 255 262 259 261 259 256 255 256 256 256 257
7 8 4 1 357 353 351 349 346 343 339 335 333 331 323 319 311 298 287 275 265 260 256 256 258 260 255 258 259 267 270 276 252 261 258 258 259 256 254 254 253 253 255
354 354 351 348 346 341 341 340 338 337 335 332 330 327 322 311 310 306 300 292 281 273 268 264 263 263 262 262 267 268 278 276 257 259 261 261 259 255 254 253 250 250 250
343 342 340 338 336 334 334 333 331 328 327 325 323 322 320 314 306 302 301 297 292 287 278 270 267 269 266 268 274 281 281 277 266 260 255 255 255 253 252 250 249 246 246
334 332 331 330 329 327 325 324 322 320 319 318 318 317 316 311 304 296 288 285 286 285 278 276 278 277 274 273 276 279 279 276 275 268 258 254 255 252 249 247 247 246 241
320 320 320 318 316 315 314 314 313 312 311 310 309 309 308 306 303 298 292 287 283 281 278 274 272 269 270 271 273 277 278 275 269 259 255 249 249 248 245 242 241 241 241
310 309 308 306 305 305 305 305 305 306 305 305 305 305 304 303 301 300 298 295 292 288 285 282 278 276 274 273 274 277 277 270 260 256 250 251 250 246 245 244 243 240 237
300 299 299 299 298 298 298 298 298 299 300 300 302 303 303 304 303 302 301 297 294 291 288 286 284 282 280 278 277 275 272 266 261 258 255 253 248 245 243 242 238 235 236